RH
34 31 29 28 27 26 25 24 25 25 24 22 23 27 31 32 34 36 37 38 34 31 34 36 35 34 33 28 26 26 26 26 24 21 18 17 16 18 22 24 27 32 36 40 37 30 25 22 21 20 18 18 18 18 20 19 18 19 18 14 11 10 11 14 18 17 14 15 15 13 10 7 9 12 12 13 16 17 19 19 19 21 21 20 20 24 32
35 32 30 28 27 26 25 24 26 29 30 27 26 31 35 34 35 35 35 37 34 32 33 35 37 38 36 33 30 29 31 29 24 20 18 18 19 21 22 24 28 32 35 42 42 35 30 26 21 20 20 20 18 17 19 19 17 18 18 17 14 11 10 12 17 19 17 15 16 16 12 7 7 11 13 17 19 19 18 17 19 21 20 19 19 23 33
36 33 31 29 27 26 25 24 26 30 32 29 29 35 38 37 36 34 32 34 34 32 33 36 42 46 46 43 39 35 34 29 25 23 20 19 21 24 24 27 32 32 33 41 44 38 36 33 27 22 22 24 21 17 19 19 16 17 18 19 17 13 12 11 14 19 21 18 17 16 13 9 7 9 12 16 19 20 20 20 20 21 19 19 21 23 30
38 35 32 30 28 26 25 24 24 29 32 29 28 35 39 38 38 36 34 33 32 31 32 36 44 51 54 52 46 41 38 31 26 25 26 27 27 26 30 34 36 34 35 40 43 43 44 44 38 29 23 25 23 19 20 19 18 19 19 19 20 17 16 13 12 16 21 21 19 15 12 10 9 10 12 15 18 19 19 20 21 20 19 19 21 22 26
39 37 33 31 29 26 24 23 24 27 30 29 29 35 39 39 39 41 44 42 35 31 33 35 41 49 55 54 49 46 44 38 33 27 24 30 34 33 34 38 38 39 40 41 43 48 50 47 45 38 29 26 24 21 20 20 20 21 19 20 22 21 20 17 13 13 16 19 20 15 12 13 14 14 13 14 17 17 19 20 20 19 18 18 21 22 24
41 38 35 33 30 26 24 23 23 25 28 29 32 37 40 44 45 43 47 49 43 39 41 42 46 53 58 56 52 49 48 47 45 37 26 25 34 37 36 38 41 44 44 43 44 50 51 48 48 45 35 32 31 29 26 22 21 21 19 21 23 23 23 21 18 15 13 13 18 18 14 15 16 16 15 14 14 15 16 18 18 18 17 17 21 23 21
42 39 36 35 32 27 24 24 23 24 26 29 34 35 37 44 50 48 47 49 48 48 51 51 52 58 62 60 56 53 53 54 53 48 36 27 31 38 40 42 46 47 46 45 45 49 49 48 51 49 40 36 39 41 38 29 24 22 20 21 21 21 23 23 22 21 16 12 15 18 16 16 17 15 14 15 14 14 14 15 16 16 15 15 17 17 18
42 40 39 37 33 28 24 24 23 24 27 31 33 33 34 40 48 50 48 48 48 49 53 54 54 58 62 63 61 61 61 60 58 55 46 35 34 39 43 48 51 49 49 48 47 46 45 46 49 48 43 41 42 47 45 34 27 26 22 20 21 19 19 22 23 24 22 17 15 15 15 17 18 15 13 15 16 13 13 13 14 14 14 14 14 15 21
41 41 41 39 35 29 24 25 26 25 27 31 34 32 33 36 42 47 48 47 46 47 51 53 55 58 60 60 62 65 63 61 64 65 54 45 45 45 46 49 50 50 50 48 45 43 44 47 48 44 45 45 45 48 48 40 36 33 25 21 23 22 20 22 24 25 25 22 18 15 14 15 16 16 16 18 19 17 14 13 13 14 14 13 12 16 26
42 42 42 40 36 30 26 27 30 29 27 30 35 34 33 34 39 44 46 45 45 46 49 51 52 56 59 57 57 61 62 63 71 72 59 50 51 49 48 50 51 51 51 48 48 48 48 51 52 49 48 46 44 47 49 46 45 43 35 29 27 24 21 21 24 26 26 24 21 17 15 15 15 15 16 18 20 19 17 15 14 13 12 12 17 24 31
42 43 43 41 37 32 28 28 32 33 31 32 37 37 35 36 40 44 46 46 43 43 45 47 48 52 57 58 57 59 65 73 78 73 62 53 50 48 49 52 54 53 49 48 53 55 52 50 51 50 48 45 44 44 43 44 46 44 39 37 33 28 23 21 25 29 27 24 23 20 18 18 16 15 15 16 18 19 17 16 15 13 13 17 25 30 32
42 43 43 42 39 35 30 28 32 36 37 36 39 40 37 37 40 43 46 47 45 46 49 49 50 52 54 57 60 64 71 78 78 73 64 55 54 57 56 55 59 59 52 48 50 52 51 49 47 45 45 44 44 41 39 44 49 45 38 37 38 36 31 28 28 29 26 24 25 25 22 20 18 18 17 16 17 17 16 16 15 15 17 22 27 27 28
42 44 44 43 41 36 32 29 31 35 38 38 38 39 39 38 39 41 45 48 48 51 56 57 55 54 53 55 60 65 69 71 70 69 64 56 55 61 62 61 64 64 57 52 50 50 51 50 47 46 45 43 43 42 41 44 48 46 38 34 37 38 37 34 31 28 27 26 26 27 26 22 19 18 18 17 17 16 15 16 17 19 21 25 28 28 28
44 44 45 44 42 37 33 30 28 31 37 38 37 37 38 39 39 41 44 49 50 53 58 60 57 54 52 54 60 63 63 61 58 58 58 55 53 55 58 61 62 59 55 53 53 54 54 52 51 51 48 45 47 48 47 45 44 43 39 34 34 35 35 35 34 31 31 31 28 25 27 24 20 18 17 17 18 17 16 17 23 26 25 27 31 32 32
44 45 46 45 43 39 34 30 28 28 33 37 36 35 37 38 39 40 43 48 52 54 56 57 57 56 53 53 57 58 54 52 51 51 50 50 50 51 53 56 57 55 52 50 51 54 56 53 52 54 51 47 48 48 49 49 44 40 39 38 37 35 35 37 37 35 33 33 30 27 28 27 23 21 20 20 22 20 18 21 28 30 29 29 32 34 35
45 47 46 44 43 39 33 31 31 29 30 34 36 35 35 36 37 38 41 46 50 53 56 58 57 57 54 52 53 52 49 47 51 55 53 50 50 52 53 54 55 52 49 47 48 53 53 49 50 55 56 54 52 51 51 52 48 40 37 38 37 37 37 37 38 38 35 34 32 29 32 33 28 24 24 25 27 25 23 26 30 30 28 28 29 33 36
46 46 46 44 41 38 34 33 34 33 30 31 34 36 34 34 36 37 38 42 47 52 58 61 59 56 54 54 54 53 52 50 52 58 61 56 52 54 56 56 54 49 44 44 46 49 50 49 50 58 61 56 52 52 50 50 49 43 38 38 40 40 38 37 38 37 36 36 34 32 37 39 32 28 28 30 31 30 28 31 34 31 29 30 31 35 37
46 45 43 41 38 36 35 35 37 37 33 29 29 33 33 33 35 36 36 38 42 48 54 59 60 57 54 54 55 54 54 54 51 53 57 55 53 57 58 54 50 47 44 43 45 47 51 52 52 55 56 51 47 48 50 50 49 44 42 44 46 45 42 37 36 35 35 36 36 35 38 37 33 32 34 33 34 32 33 38 39 35 34 34 33 35 35
44 43 42 40 37 36 37 39 40 40 38 31 28 32 34 32 32 33 34 34 36 42 50 57 62 61 57 56 56 53 52 54 53 52 53 55 55 56 52 48 47 47 44 43 44 44 47 52 52 49 52 53 51 49 49 50 49 47 45 47 49 50 49 42 36 33 34 36 37 39 41 37 33 34 34 33 35 36 37 41 41 37 36 36 35 34 34
43 42 41 40 37 37 40 43 43 42 40 35 31 33 34 31 29 31 32 34 35 38 45 52 59 63 62 60 59 54 49 49 50 49 49 50 52 52 51 51 50 48 46 48 49 46 48 54 55 50 50 55 55 51 48 48 48 49 48 47 46 48 50 48 41 35 33 35 37 40 42 38 34 34 34 34 37 39 39 39 40 38 36 35 34 32 32
45 43 41 40 39 40 42 45 45 43 41 37 34 35 34 31 28 29 31 33 34 35 37 43 53 62 64 63 61 57 50 46 44 41 39 40 46 51 55 57 56 54 54 55 58 59 58 60 58 53 52 53 52 51 50 49 48 49 48 47 47 47 47 51 49 45 42 44 45 45 45 40 34 35 37 37 37 38 39 39 39 39 37 34 33 34 33
46 44 44 43 42 41 43 45 46 43 41 38 36 36 36 34 31 30 30 31 32 33 32 34 42 51 57 59 59 55 50 43 40 37 34 36 43 50 53 56 61 65 63 58 60 65 65 62 59 57 57 55 51 50 50 50 49 50 48 49 51 50 47 48 49 48 48 50 51 53 53 45 37 37 39 39 36 34 34 34 36 39 39 36 35 37 38
46 44 44 43 43 43 43 45 46 44 41 39 35 35 37 36 32 30 30 30 30 30 29 29 34 42 49 53 54 53 49 44 39 36 33 34 39 48 53 56 60 68 68 62 60 63 65 64 61 58 60 61 56 52 52 50 50 51 50 51 52 51 47 47 47 46 47 48 51 60 64 53 39 36 39 39 37 33 31 32 35 39 40 38 37 39 40
46 45 43 42 43 44 44 44 46 44 42 39 36 35 36 35 31 31 30 28 26 26 26 28 32 37 44 50 54 55 53 48 42 38 34 33 37 46 54 55 53 58 64 63 59 55 57 60 59 55 58 62 60 57 56 54 52 52 51 53 54 52 50 48 46 46 52 54 55 65 72 62 44 37 39 39 37 36 37 38 40 42 41 39 39 39 39
45 44 42 42 42 42 43 43 45 44 42 40 38 38 37 35 33 32 31 29 27 25 25 26 29 33 40 46 51 55 54 50 46 41 35 33 35 42 48 49 49 52 57 61 59 54 53 57 57 54 57 60 60 60 59 58 56 54 52 55 58 56 51 47 45 48 57 61 58 59 64 60 48 42 42 40 37 40 44 44 42 42 42 41 40 39 39
45 44 42 41 41 42 42 42 43 43 42 41 39 40 39 37 34 32 30 29 28 25 23 23 26 33 38 41 44 49 51 49 46 43 38 34 35 40 42 44 48 51 52 55 58 57 56 55 55 55 57 58 57 57 59 60 60 58 54 56 59 57 53 50 50 53 58 60 58 55 55 55 51 45 44 42 40 44 50 48 44 45 48 51 49 47 47
45 45 43 41 41 42 43 43 43 43 42 41 40 40 40 38 35 32 30 29 28 26 22 21 23 29 32 34 37 42 47 48 46 44 40 36 36 39 40 41 45 48 49 50 53 56 58 58 57 57 57 55 53 54 55 57 61 62 59 57 57 57 55 55 58 62 61 57 54 52 52 55 52 46 43 44 47 54 61 62 58 56 59 64 62 58 58
43 43 42 42 41 40 41 42 43 43 43 41 40 42 42 39 35 33 31 29 28 27 26 24 23 24 24 26 30 34 39 43 44 43 40 37 37 40 41 40 41 43 46 47 51 54 57 60 63 63 57 52 52 53 54 57 61 63 62 60 57 57 60 59 60 61 61 59 56 55 56 57 54 47 44 47 54 61 66 66 64 61 60 62 63 63 64
38 37 37 37 37 37 38 39 40 42 42 41 42 46 46 41 37 35 33 31 30 29 27 25 23 20 20 22 26 30 34 37 40 41 40 37 35 39 41 40 39 39 41 44 48 51 53 57 63 66 62 56 53 53 55 58 62 64 64 63 62 61 63 64 62 59 56 58 60 60 59 60 57 52 47 49 55 61 63 62 63 62 59 59 61 61 62
35 34 32 32 31 31 32 33 34 37 40 42 46 48 45 41 41 39 35 32 31 31 28 24 22 19 18 18 20 25 30 34 37 38 39 37 34 36 40 42 40 38 38 40 43 46 51 55 58 61 61 57 53 53 55 59 61 62 62 63 63 60 59 61 62 60 56 57 60 61 59 58 56 54 52 50 52 57 61 60 59 57 54 54 57 58 58
34 33 32 30 30 29 28 28 27 28 31 38 44 46 43 44 45 43 38 35 35 33 29 25 23 20 17 16 17 19 24 30 35 36 36 35 33 34 38 41 42 40 38 38 41 43 47 51 53 57 60 60 56 54 56 59 60 60 60 61 61 59 58 59 60 59 56 54 56 58 57 56 55 56 58 58 55 55 56 53 50 49 49 49 52 54 56
35 34 32 31 30 30 29 28 28 26 27 32 37 39 40 42 43 39 37 37 36 33 30 27 23 20 19 21 23 21 20 25 32 35 35 33 32 33 35 39 42 42 39 39 40 42 44 47 48 54 60 61 57 54 55 57 58 57 57 60 62 62 62 62 62 61 59 57 55 54 55 55 56 57 58 57 55 54 54 51 49 50 50 50 52 55 55
37 36 34 33 32 31 30 31 30 28 27 28 30 29 30 32 33 33 35 37 36 34 32 27 23 21 23 27 28 24 21 23 29 34 36 34 32 32 33 35 38 41 41 40 39 40 43 45 47 52 57 57 54 54 56 57 56 55 53 54 58 61 62 63 61 62 62 61 59 57 55 56 56 57 57 58 56 55 53 50 50 50 49 50 55 57 56
41 40 38 36 36 35 35 34 32 31 30 29 28 28 27 27 28 29 32 35 35 34 32 28 23 21 22 25 27 26 23 23 27 33 36 36 33 32 33 34 36 39 40 40 37 38 41 45 46 50 55 55 52 53 55 54 54 56 54 52 52 55 58 58 57 58 61 62 62 62 60 59 58 59 61 62 59 56 53 51 49 48 47 50 54 55 54
44 42 41 41 40 40 40 38 36 37 37 34 32 31 30 28 27 27 28 32 34 33 31 27 23 20 19 21 26 28 26 23 26 32 36 37 35 32 31 32 34 36 39 40 39 38 40 44 45 48 52 53 54 54 54 51 52 55 56 53 51 52 55 56 56 57 59 61 62 64 64 64 64 63 62 60 58 57 56 53 51 50 51 53 58 57 54
43 42 42 42 42 43 44 43 42 42 41 37 34 35 34 31 30 29 29 30 32 33 32 29 24 21 21 26 33 35 31 26 27 31 36 39 39 35 32 32 34 37 38 38 39 38 40 42 44 46 49 51 53 53 51 49 50 52 53 53 52 53 56 60 61 60 59 59 59 61 63 65 65 64 62 60 59 59 58 55 54 55 56 59 62 61 57
43 42 42 45 47 47 47 46 45 44 43 40 38 37 35 31 32 33 33 32 31 32 33 32 26 23 24 30 36 39 38 34 31 30 35 41 42 40 35 32 34 37 38 38 38 38 40 42 44 44 47 48 49 49 50 49 48 48 49 51 52 52 55 60 61 59 58 58 57 57 59 62 62 61 61 60 60 59 57 54 52 53 56 61 64 62 60
42 42 45 50 52 51 50 49 47 44 43 42 41 39 37 36 37 37 35 33 31 31 31 30 28 25 24 27 32 36 39 40 38 35 36 42 45 45 41 34 31 35 38 38 37 37 39 43 43 43 44 45 44 45 49 50 47 44 44 47 50 52 53 56 57 55 55 58 59 58 58 59 59 59 58 57 57 55 53 52 53 54 59 64 65 62 60
45 48 51 54 55 55 55 55 52 48 45 44 42 39 39 41 42 40 37 33 30 29 29 27 26 25 23 22 27 32 36 41 43 42 42 45 47 50 48 41 35 35 37 38 39 39 37 40 43 42 42 44 43 43 46 48 45 42 42 44 48 51 52 54 56 56 55 57 58 58 58 58 58 57 55 54 54 55 55 56 58 60 64 68 67 62 58
53 56 59 60 59 58 58 58 55 51 48 49 48 45 44 46 45 43 43 40 34 29 26 24 25 24 22 20 24 28 32 38 45 50 52 52 52 55 56 52 45 41 39 38 41 42 39 40 43 42 41 42 42 43 45 46 43 42 42 43 46 50 52 54 57 57 58 57 55 54 56 58 57 55 53 53 54 55 56 60 64 66 67 69 68 63 58
65 66 68 68 65 63 63 63 62 57 54 55 57 54 51 50 47 45 47 49 43 34 28 23 22 23 21 18 20 24 28 35 43 51 56 56 53 56 61 60 53 47 43 40 42 46 45 43 42 41 40 41 43 43 45 46 44 44 45 46 48 51 53 54 55 57 60 59 55 53 54 56 55 52 51 54 55 55 57 62 68 70 69 68 67 63 60
74 73 72 71 69 69 69 69 67 65 61 60 61 59 54 50 49 48 48 46 42 37 33 28 24 23 21 18 17 18 22 29 38 47 56 61 58 57 60 62 58 54 49 43 43 48 50 46 42 39 39 41 43 43 45 46 47 46 48 50 53 58 60 59 59 60 61 60 57 55 54 55 54 52 52 56 60 61 61 61 64 64 65 65 64 63 61
75 74 74 73 72 73 72 69 66 65 64 63 63 61 57 52 49 47 45 41 36 35 37 37 32 26 24 23 21 18 18 26 35 43 52 61 62 58 59 63 64 60 55 48 48 52 55 51 45 42 42 42 42 43 45 46 47 48 50 52 56 62 65 64 62 61 60 59 58 57 54 53 55 54 54 57 62 65 66 66 64 62 60 59 57 55 54
74 75 77 77 75 75 74 71 67 66 65 63 61 59 55 50 46 42 41 41 39 36 37 39 39 34 30 29 28 23 20 23 29 37 45 54 60 61 61 64 64 61 58 55 55 55 54 51 47 46 47 46 46 46 46 45 45 47 49 51 54 59 63 63 61 58 56 55 56 56 53 52 54 53 52 53 54 55 60 66 65 58 52 49 48 48 50
76 77 78 79 78 76 74 71 68 65 62 59 57 54 50 46 44 44 43 47 49 47 44 45 48 45 38 33 31 28 25 23 26 30 35 44 55 62 63 63 63 63 63 62 61 57 53 49 48 49 50 51 51 50 48 46 45 46 48 49 50 54 58 59 58 56 55 55 58 58 55 54 54 52 49 47 45 45 49 53 52 47 43 42 41 42 45
81 81 80 79 77 73 70 68 66 62 58 54 52 50 46 44 48 53 54 53 55 55 53 52 52 51 47 41 37 33 29 27 29 30 30 36 48 57 59 59 61 63 63 62 60 57 54 49 47 49 51 52 52 52 51 47 44 43 44 46 49 51 53 54 55 54 53 53 53 53 53 54 55 52 48 44 42 42 44 44 42 40 39 38 37 37 40
84 83 82 79 75 69 64 62 59 58 57 55 51 50 50 50 53 59 61 58 56 56 58 59 59 56 54 50 46 41 36 32 31 31 30 32 39 49 55 58 61 63 62 59 57 54 52 50 48 50 52 53 53 53 52 48 44 40 40 44 49 50 50 51 52 50 48 46 46 46 49 53 54 49 45 42 41 40 41 41 39 37 38 39 39 40 40
85 84 82 79 72 64 60 57 54 54 57 59 58 58 59 59 56 57 60 61 60 60 64 65 64 61 57 53 48 46 44 40 35 32 31 30 33 42 52 59 62 61 59 55 52 52 52 51 52 52 53 54 53 53 50 46 43 41 41 44 47 46 45 48 51 50 45 43 42 45 50 55 53 45 38 38 40 41 42 41 40 38 39 41 42 43 44
84 83 80 75 68 61 57 57 57 55 58 63 65 65 65 66 64 62 62 62 63 63 65 66 66 64 61 56 51 49 49 47 42 36 32 31 31 37 46 53 56 58 56 51 48 51 53 54 56 60 60 56 54 51 46 44 44 43 43 43 43 42 42 46 51 49 45 42 40 42 48 55 53 43 35 36 41 43 43 42 41 41 43 44 43 44 47
82 81 77 73 69 65 61 61 62 62 63 66 69 69 69 70 71 69 65 63 63 64 65 66 67 65 63 61 59 57 53 50 45 41 37 33 31 34 41 47 51 53 52 48 47 51 55 55 58 63 63 58 53 50 46 43 41 42 43 45 45 44 45 48 47 44 42 43 41 40 44 52 52 44 38 40 44 46 44 43 43 44 45 45 44 46 48
81 77 72 68 69 69 67 67 69 70 70 72 73 73 71 72 72 71 68 65 64 63 64 66 68 67 64 63 63 60 55 50 47 46 44 38 32 32 37 41 44 47 49 49 49 51 53 54 59 63 60 55 52 50 47 42 40 42 48 52 52 51 52 53 48 42 42 43 43 41 43 48 51 48 44 45 47 46 45 45 45 45 45 46 48 49 51
77 73 69 68 69 70 70 71 72 72 72 74 76 75 73 73 74 74 73 70 66 64 64 66 68 69 67 62 59 58 57 54 51 49 47 43 37 33 32 34 37 43 50 56 59 56 52 54 61 65 62 57 54 52 48 43 41 44 50 53 50 47 47 47 43 40 40 42 44 43 44 48 51 51 49 48 48 47 47 47 47 45 46 49 53 55 54